Location: Unspecified
(0.0000°N, 0.0000°E)
Time: 07:23:17
(UTC+00:00)

deb Explorer IX - Visible Passes

Search period start: 29 November 2014 00:00
Search period end: 09 December 2014 00:00
Orbit: 558 x 1192 km, 38.8° (Epoch: 26 November)

Date Brightness Start Highest point End Pass type
(mag) Time Alt. Az. Time Alt. Az. Time Alt. Az.
01 Dec ? 19:39:49 10° N 19:40:01 11° N 19:40:01 11° N visible
02 Dec ? 19:32:52 10° NNW 19:35:11 21° N 19:35:11 21° N visible
03 Dec ? 19:25:59 10° NNW 19:30:46 39° NNE 19:30:46 39° NNE visible
04 Dec ? 19:19:10 10° NNW 19:24:51 53° NE 19:26:55 39° E visible
04 Dec ? 21:07:47 10° W 21:09:33 18° W 21:09:33 18° W visible
05 Dec ? 19:12:25 10° NW 19:18:06 69° NE 19:23:59 14° ESE visible
05 Dec ? 21:01:46 10° W 21:06:41 24° SW 21:06:41 24° SW visible
06 Dec ? 19:05:43 10° NW 19:11:21 90° NE 19:18:08 10° SE visible
06 Dec ? 20:55:56 10° WSW 21:00:12 18° SW 21:04:51 10° S visible
07 Dec ? 18:59:04 10° WNW 19:04:34 69° SW 19:11:12 10° SE visible
07 Dec ? 20:50:29 10° WSW 20:53:35 14° SSW 20:56:52 10° S visible
08 Dec ? 04:18:41 10° SSE 04:20:56 12° SSE 04:23:05 10° SE visible
08 Dec ? 18:52:29 10° WNW 18:57:47 52° SW 19:04:07 10° SE visible
